Flag for Germany Weather past 2 weeks in Bensheim, Hesse, Germany

45 °F

Scattered showers. Partly sunny.

Feels Like: 41 °F
Forecast: 30 / 41 °F
Wind: 6 mph from Northeast

Location: Baden Wurttemberg - Neuostheim

Current Time: Nov 26, 2015 at 3:47:23 PM

Latest Report: Nov 26, 2015 at 2:50 PM

Visibility: N/A

Pressure: 30.04 "Hg

Humidity: 76%

Dew point: 37 °F

Location of BensheimLocation

Historic Weather in Bensheim — Graph


Bensheim temperature yesterday

Maximum temperature yesterday: 43 °F (at 2:20 PM)
Minimum temperature yesterday: 34 °F (at 6:50 AM)
Average temperature yesterday: 39 °F

Past Weeks' High & Low Weather Summary

High61 °F (Nov 18, 5:50 AM)100% (Nov 12, 7:50 PM)30.42 "Hg (Nov 12, 7:50 PM)
Low30 °F (Nov 24, 5:20 AM)51% (Nov 16, 10:20 AM)29.42 "Hg (Nov 21, 11:50 AM)
Average48 °F79%30.03 "Hg
* Reported Nov 11 2:20 PM — Nov 26 2:20 PM, Bensheim, Weather by CustomWeather, © 2015

Note: Actual official high and low records may vary slightly from our data, if they occured in-between our weather recording intervals... More about our weather records


Bensheim weather history for previous 24 hours

Time TempWeatherWind HumidityBarometerVisibility
2:20 PM
Thu, Nov 26
45 °FMore clouds than sun.6 mph76%30.04 "HgN/A
1:50 PM45 °FPartly sunny.7 mph76%30.04 "HgN/A
1:20 PM45 °FPartly sunny.6 mph76%30.04 "HgN/A
12:50 PM45 °FCloudy.9 mph76%30.01 "HgN/A
12:20 PM45 °FPartly sunny.6 mph76%30.01 "HgN/A
11:50 AM43 °FMostly cloudy.7 mph87%30.01 "HgN/A
11:20 AM43 °FOvercast.8 mph81%30.01 "HgN/A
10:50 AM43 °FPartly sunny.8 mph81%30.01 "HgN/A
10:20 AM43 °FMostly cloudy.7 mph81%29.98 "HgN/A
9:50 AM43 °FPartly sunny.7 mph81%29.98 "HgN/A
9:20 AM43 °FPartly sunny.No wind93%29.95 "HgN/A
8:50 AM41 °FMostly cloudy.1 mph93%29.95 "HgN/A
8:20 AM41 °FPartly sunny.2 mph93%29.95 "HgN/A
7:50 AM39 °FMostly cloudy.2 mph100%29.92 "HgN/A
7:20 AM39 °FOvercast.2 mph100%29.92 "HgN/A
6:50 AM39 °FOvercast.2 mph100%29.89 "Hg6 mi
6:20 AM41 °FOvercast.2 mph93%29.89 "HgN/A
5:50 AM41 °FLight rain. Overcast.2 mph93%29.89 "HgN/A
9:20 PM
Wed, Nov 25
37 °FPartly cloudy.1 mph100%29.77 "Hg5 mi
8:50 PM39 °FPassing clouds.2 mph100%29.77 "Hg6 mi
8:20 PM39 °FLight rain. Passing clouds.2 mph100%29.77 "HgN/A
7:50 PM41 °FLight rain. Mostly cloudy.2 mph93%29.74 "HgN/A
7:20 PM41 °FLight rain. Overcast.5 mph93%29.74 "HgN/A
6:50 PM41 °FLight rain. Partly cloudy.7 mph93%29.74 "HgN/A
6:20 PM41 °FLight rain. Low clouds.2 mph93%29.74 "Hg5 mi
5:50 PM41 °FLight rain. Passing clouds.3 mph93%29.74 "HgN/A
5:20 PM41 °FLight rain. Passing clouds.5 mph93%29.74 "HgN/A
4:50 PM41 °FMostly cloudy.6 mph93%29.74 "HgN/A
4:20 PM41 °FBroken clouds.7 mph93%29.74 "HgN/A
3:50 PM43 °FCloudy.5 mph87%29.74 "HgN/A
3:20 PM43 °FLow clouds.5 mph87%29.74 "HgN/A
Weather by CustomWeather, © 2015

See weather overviewHow to use our weather pages